Orbital Elements at Epoch 2459000.5 (2020-May-31.0) TDB
Reference: JPL 12 (heliocentric ecliptic J2000)
Element | Value | Uncertainty (1-sigma) | Units |
e | .1540273786172918 | 5.1283e-08 | |
a | 3.100397939888881 | 2.705e-08 | au |
q | 2.622851772537345 | 1.5616e-07 | au |
i | .2543649708757866 | 6.7637e-06 | deg |
node | 35.662240620914 | 0.0013099 | deg |
peri | 261.5694991552426 | 0.0013101 | deg |
M | 218.859378131599 | 2.2712e-05 | deg |
tp | 2459782.261200441572 (2022-Jul-21.76120044) | 0.00012787 | TDB |
period | 1993.997393757935 5.46 | 2.6096e-05 7.145e-08 | d yr |
n | .1805418608504475 | 2.3628e-09 | deg/d |
Q | 3.577944107240418 | 3.1217e-08 | au |
|
| | Orbit Determination Parameters
Additional Information
|